Weather Roundup
Issued by NWS Springfield, MO

Home | Current Version | Previous Version | Text Only | Print | Product List | Glossary On
Versions: 1 2 3 4 5 6 7 8 9 10 11 12 13 14 15 16 17 18 19 20 21 22 23 24 25 26 27 28 29 30 31 32 33 34 35 36 37 38 39 40 41 42 43 44 45 46 47 48 49 50
000
NZUS99 KSGF 292207
HRRSGF

HOURLY WEATHER
NATIONAL WEATHER SERVICE SPRINGFIELD MO
500 PM CDT THU SEP 29 2016

......SGF CWA......

CITY           SKY/WX    TMP DP  RH WIND       PRES   REMARKS
SPRINGFIELD    SUNNY     72  44  36 N15       30.22F
JOPLIN         SUNNY     71  48  43 N12       30.26F
WEST PLAINS    MOSUNNY   72  49  44 N12G22    30.20S
ROLLA          MOSUNNY   72  52  49 N14G20    30.18S
OSAGE BEACH    MOSUNNY   72  53  51 N8        30.22S
BRANSON        SUNNY     72  46  40 N14G20    30.22F

......SURROUNDING SGF CWA......

CITY           SKY/WX    TMP DP  RH WIND       PRES   REMARKS
CHANUTE        SUNNY     72  46  39 N8        30.28F
PARSONS        SUNNY     72  47  40 N8        30.28F
COFFEYVILLE    SUNNY     73  48  41 N12       30.27F
EMPORIA        SUNNY     70  48  45 N9        30.30F
GROVE OK       SUNNY     72  50  46 N8G16     30.26F
ROGERS AR      SUNNY     69  49  48 N8        30.25F
SILOAM SPRINGS SUNNY     72  45  37 N10       30.25F
HARRISON AR    SUNNY     72  46  39 NW8G18    30.21F
NEAR YELLVILLE SUNNY     75  45  33 N7        30.16F

......KANSAS AND MISSOURI......

CITY           SKY/WX    TMP DP  RH WIND       PRES   REMARKS
KANSAS CTY INT SUNNY     71  47  42 N10       30.29F
DOWNTOWN KC    SUNNY     73  46  38 N8        30.28F
COLUMBIA       SUNNY     75  49  39 NW16G25   30.20F
SEDALIA        SUNNY     76  46  34 N14       30.25S
ST JOSEPH      SUNNY     73  46  38 N12       30.30F
ST LOUIS       CLOUDY    68  53  58 N10       30.16S
SPIRIT OF STL  PTSUNNY   68  54  60 N6        30.16S
KIRKSVILLE     SUNNY     73  49  42 N15       30.24F
WICHITA        MOSUNNY   71  49  45 VRB6      30.31F
TOPEKA         SUNNY     71  49  45 N9        30.30F
OLATHE         SUNNY     71  45  39 N9        30.29F

......TENNESSEE......

CITY           SKY/WX    TMP DP  RH WIND       PRES   REMARKS
MEMPHIS        PTSUNNY   73  52  47 N15       30.11R
NASHVILLE      LGT RAIN  60  51  72 W8        30.10R

......ARKANSAS.......

CITY           SKY/WX    TMP DP  RH WIND       PRES   REMARKS
FAYETTEVILLE   SUNNY     71  48  43 NW10      30.23F
FT SMITH       SUNNY     78  45  30 N16       30.19F
LITTLE ROCK    MOSUNNY   79  48  33 N12       30.14F

......OKLAHOMA.......

CITY           SKY/WX    TMP DP  RH WIND       PRES   REMARKS
TULSA          MOSUNNY   75  48  38 N14       30.24F
PONCA CITY     SUNNY     74  48  39 NE7       30.28F
MCALESTER      SUNNY     75  47  36 NE9G21    30.24F
OKLAHOMA CITY  MOSUNNY   73  48  41 N12       30.27F

......IOWA............

CITY           SKY/WX    TMP DP  RH WIND       PRES   REMARKS
DES MOINES     SUNNY     75  46  35 NE8       30.30S
QUAD CITIES    CLOUDY    73  51  46 NE16G23   30.21S

......ILLINOIS........

CITY           SKY/WX    TMP DP  RH WIND       PRES   REMARKS
QUINCY         PTSUNNY   73  49  42 N16       30.18S
CHICAGO        PTSUNNY   64  57  78 NE17G23   30.20R




USA.gov is the U.S. government's official web portal to all federal, state and local government web resources and services.